Regional Weather Roundup
Issued by NWS Kansas City/Pleasant Hill, MO

Home | Current Version | Previous Version | Text Only | Print | Product List | Glossary On
Versions: 1 2 3 4 5 6 7 8 9 10 11 12 13 14 15 16 17 18 19 20 21 22 23 24 25 26
000
ASUS43 KEAX 261710
RWREAX

WEATHER ROUNDUP FOR EASTERN KANSAS AND NORTHWEST MISSOURI
NATIONAL WEATHER SERVICE KANSAS CITY/PLEASANT HILL MO
1200 PM CDT WED JUL 26 2017

KSZ040-057-103>105-MOZ028-029-037-043-261800-
...KANSAS CITY METROPOLITAN AREA...

CITY           SKY/WX    TMP DP  RH WIND       PRES   REMARKS
K.C. INTL      LGT RAIN  78  76  93 S8        30.03F
K.C. DOWNTOWN  LGT RAIN  81  74  79 W3        30.03F
LEES SUMMIT    CLOUDY    81  76  84 SW5       30.06F
OLATHE - IXD   CLOUDY    79  73  82 CALM      30.06F
OLATHE - OJC   CLOUDY    79  75  87 SW3       30.06F
LAWRENCE       LGT RAIN  76  76 100 E5        30.03F FOG

$$

MOZ001>008-011>017-020>025-030>033-038>040-044>046-053-054-261800-
...NORTHERN AND CENTRAL MISSOURI...

CITY           SKY/WX    TMP DP  RH WIND       PRES   REMARKS
ST. JOSEPH     CLOUDY    79  77  94 S9        29.98F
MOSBY          LGT RAIN  79  72  78 CALM      30.03F
WARRENSBURG    CLOUDY    81  72  74 SW7       30.06R
WHITEMAN AFB   CLOUDY    85  76  75 SW10      30.04F HX  94
CLINTON        CLOUDY    86  75  70 SW7       30.06S HX  95
SEDALIA        CLOUDY    87  78  74 SW9       30.07S HX 100
WARSAW         NOT AVBL
CHILLICOTHE      N/A     82  76  81 VRB3      30.03F
KIRKSVILLE     CLOUDY    84  76  76 SW7       30.04F HX  93

$$

MOZ041-047>049-056>058-063>065-088>090-097-261800-
...EASTERN AND SOUTHERN MISSOURI...

CITY           SKY/WX    TMP DP  RH WIND       PRES   REMARKS
ST. LOUIS INTL CLOUDY    96  74  48 W10       30.05S HX 107
SPIRIT OF STL  CLOUDY    92  75  57 SW10      30.03F HX 103
COLUMBIA       CLOUDY    89  75  63 VRB5      30.07S HX  99
JEFFERSON CITY CLOUDY    89  74  60 SW9       30.05S HX  98
ROLLA          CLOUDY    88  74  63 SW8       30.10S HX  96
OSAGE BEACH    PTSUNNY   92  71  50 S10       30.07F HX  98
SPRINGFIELD    CLOUDY    90  73  57 S10       30.09F HX  98
BRANSON        CLOUDY    90  72  55 SW7       30.12F HX  96
JOPLIN         PTSUNNY   94  73  50 SW14G22   30.06F HX 103
WEST PLAINS    CLOUDY    90  71  53 W6        30.12F HX  96

$$

IAZ060-094-KSZ022-034>040-054-083-096-NEZ052-066-093-261800-
...KANSAS...SOUTHEAST NEBRASKA AND IOWA...

CITY           SKY/WX    TMP DP  RH WIND       PRES   REMARKS
TOPEKA         LGT RAIN  76  75  97 SE13      29.99F
MANHATTAN      LGT RAIN  76  73  91 S8        29.97S
EMPORIA        CLOUDY    76  74  93 E8        30.02F
CHANUTE        CLOUDY    87  73  62 S9        30.03S HX  94
WICHITA        CLOUDY    93  69  45 S13       29.96F HX  98
OMAHA          CLOUDY    76  72  87 S9        29.97F
LINCOLN        CLOUDY    80  74  81 SE6       29.97S
FALLS CITY     CLOUDY    79  75  87 S12       29.97F
LAMONI         CLOUDY    78  74  87 SW5       30.04S
DES MOINES     CLOUDY    77  72  84 SE5       30.00R

$$





USA.gov is the U.S. government's official web portal to all federal, state and local government web resources and services.